Retour au catalogue

STARLINK-11704

ActifCommunicationsVLEO
NORAD 64245·PAYLOAD·🇺🇸 United States

Lancé Jun 3, 2025 depuis Cape Canaveral Space Force Station

Loading…

Prochains Passages (prochaines 24 heures)

TLE

FraisSource: CelesTrak SupGP

Époque: Sep 14, 2026, 21:10 UTC

1 64245C 25119N   26257.88243056 -.00014215  00000+0 -11043-3 0  2570
2 64245  43.0002 148.4799 0001581 252.6389  67.1157 15.70840515    18

Suivez STARLINK-11704 en temps réel avec AllMySat

Download on the App Store